Regional Weather Roundup
Issued by NWS Upton, NY

Current Version | Previous Version | Text Only | Print | Product List | Glossary On
Versions: 1 2 3 4 5 6 7 8 9 10 11 12 13 14 15 16 17 18 19 20 21 22 23 24 25 26 27 28 29 30 31 32 33 34 35 36 37 38 39 40 41 42 43 44 45 46 47 48 49 50
000
ASUS41 KOKX 271605
RWROKX

REGIONAL WEATHER ROUNDUP
NATIONAL WEATHER SERVICE NEW YORK NY
1200 PM EDT SUN JUL 27 2014

NOTE: "FAIR" INDICATES FEW OR NO CLOUDS BELOW 12,000 FEET WITH NO
SIGNIFICANT WEATHER AND/OR OBSTRUCTIONS TO VISIBILITY.

NYZ071-072-176-178-NJZ106-104-271700-
NEW YORK CITY METRO AREA


CITY           SKY/WX    TMP DP  RH WIND       PRES   REMARKS
CENTRAL PARK   PTSUNNY   78  68  71 VRB3      29.78F
LAGUARDIA APRT PTSUNNY   81  69  67 SW12      29.74F
KENNEDY INTL   PTSUNNY   79  70  74 SW16      29.77F
NEWARK/LIBERTY PTSUNNY   80  69  69 SW9       29.75F
BRNX BOT. GARD   N/A     77  68  73 W10       29.77F
TETERBORO      CLOUDY    80  67  64 SW8       29.74F
$$

NYZ177-179-078>081-271700-
LONG ISLAND NEW YORK

CITY           SKY/WX    TMP DP  RH WIND       PRES   REMARKS
FARMINGDALE    CLOUDY    76  70  82 SW15G23   29.76F
ISLIP          PTSUNNY   81  69  67 SW15G22   29.75F
SHIRLEY        MOSUNNY   77  67  71 S15       29.78F
WESTHAMPTON    PTSUNNY   78  70  76 S14G23    29.79F
MONTAUK POINT    N/A     73  68  84 S7        29.81F
$$

NYZ052-065-067-271700-
HUDSON VALLEY

CITY           SKY/WX    TMP DP  RH WIND       PRES   REMARKS
WHITE PLAINS   CLOUDY    75  68  78 VRB6      29.76F
NEWBURGH       NOT AVBL
MONTGOMERY     PTSUNNY   79  69  71 SW12      29.74F
POUGHKEEPSIE   PTSUNNY   77  71  82 S7        29.73F
ALBANY         PTSUNNY   74  68  81 S7        29.71F
$$

NJZ001-105-106-008-010-013-015-019>022-104-271700-
NEW JERSEY

CITY           SKY/WX    TMP DP  RH WIND       PRES   REMARKS
NEWARK/LIBERTY PTSUNNY   80  69  69 SW9       29.75F
TETERBORO      CLOUDY    80  67  64 SW8       29.74F
CALDWELL       PTSUNNY   78  68  71 VRB5      29.76F
MORRISTOWN     CLOUDY    81  72  74 SW8       29.76F
SOMERVILLE     PTSUNNY   82  69  64 W9        29.74F
LINDEN         CLOUDY    82  69  64 W8        29.77F
SUSSEX         MOSUNNY   84  70  62 SW7       29.74F
ANDOVER          N/A     79  67  66 VRB6      29.76F
TRENTON        PTSUNNY   83  68  60 NW9       29.75F
MILLVILLE      PTSUNNY   81  68  64 W10       29.79F
ATLANTIC CITY  MOSUNNY   84  68  58 W12       29.78F
WRIGHTSTOWN    PTSUNNY   84  69  60 W8        29.74F
TOMS RIVER     PTSUNNY   84  70  61 W14       29.77F
BELMAR         PTSUNNY   82  70  65 SW10      29.77F
$$

PAZ047>061-062-071-271700-
EASTERN PENNSYLVANIA

CITY           SKY/WX    TMP DP  RH WIND       PRES   REMARKS
PHILADELPHIA   PTSUNNY   84  66  54 SW14      29.77F
ALLENTOWN      PTSUNNY   81  68  64 W12       29.77F
SCRANTON       SUNNY     81  64  56 W8G17     29.77F
$$

CTZ002-004>006-009-010-012-RIZ004-006-007-MAZ004-011-015-271700-
SOUTHERN NEW ENGLAND
 IN CT

CITY           SKY/WX    TMP DP  RH WIND       PRES   REMARKS
BRADLEY INTL   CLOUDY    75  71  87 S14       29.74F THUNDER
HARTFORD       CLOUDY    75  70  84 S9        29.75F
DANBURY        LGT RAIN  74  67  78 SW9       29.77F
WTRBRY/OXFORD  PTSUNNY   73  66  78 S12G21    29.78F
BRIDGEPORT     CLOUDY    78  69  73 S12       29.75F
MERIDEN        LGT RAIN  76  68  76 S10G18    29.76S
NEW HAVEN      PTSUNNY   79  69  71 S8        29.76F
CHESTER        PTSUNNY   73  70  88 S13       29.79F
GROTON         LGT RAIN  70  69  97 S12       29.77F FOG
WILLIMANTIC    LGT RAIN  73  69  87 S9        29.77F

 IN RI

CITY           SKY/WX    TMP DP  RH WIND       PRES   REMARKS
PROVIDENCE     LGT RAIN  72  68  87 S10       29.81F
BLOCK ISLAND   CLOUDY    73  66  78 S13       29.81F
WESTERLY       LGT RAIN  71  69  93 S8        29.81F FOG

 IN MA

CITY           SKY/WX    TMP DP  RH WIND       PRES   REMARKS
BOSTON         HVY RAIN  70  66  88 S16G25    29.79R VSB 3/4
WORCESTER      LGT RAIN  69  66  90 S9        29.80F
WESTFIELD      TSTM      71  68  90 S12G18    29.74F VSB 1
PROVINCETOWN   MOSUNNY   77  66  69 CALM      29.82F
NANTUCKET      MOSUNNY   73  66  78 S14       29.84F
$$

ANZ330-335-338-340-345-350-353-355-271700-
COASTAL MARINE OBSERVATIONS


STATION/POSITION TIME  SKY/WX   TEMP    WIND        PRES    VSBY  WAVE
                                AIR SEA DIR/SP/G                  HT/PER
                 (UTC)          (F)     (DEG/KT/KT) (MB)    (MI)  (FT/S)
NY HARB ENTRANCE NOT AVBL
4S FIRE IS       NOT AVBL
23SW MTP         1600            72 71              1008.3          3/ 4
HUDSON CANYON    1600            71 74  170/ 19/ 21 1009.1
EXECUTION ROCKS  1600            75 72  210/ 12/ 16   N/A
WESTERN LI SOUND 1600            75     200/ 14/ 16   N/A           1/ 2
CENTRAL LI SOUND 1500            73 71  190/ 12/ 16   N/A           2/ 3
EASTERN LI SOUND 1500            70 67  180/ 10/ 14   N/A
ROBBINS REEF     1600            78     240/  6/  7   N/A
$$


>>>>>>>>>>>>>>>>>>>>>>>>>>>> KEY <<<<<<<<<<<<<<<<<<<<<<<<<<<
>                                                          <
>     SKY/WX - SKY CONDITION/PRESENT WEATHER               <
>     TMP    - TEMPERATURE IN FAHRENHEIT                   <
>     DP     - DEWPOINT IN FAHRENHEIT                      <
>     RH     - RELATIVE HUMIDITY IN PERCENT                <
>     WIND   - DIRECTION AND SPEED IN MPH                  <
>     PRES   - MEAN SEA LEVEL PRESSURE IN INCHES OF HG     <
>     WCI    - WIND CHILL INDEX                            <
>     VSB    - VISIBILITY IN MILES                         <
>     HX     - HEAT INDEX                                  <
>     TC     - TEMPERATURE IN CELSIUS                      <
>     VRB    - VARIABLE WIND DIRECTION                     <
>                                                          <
>>>>>>>>>>>>>>>>>>>>>>>>>>>> KEY <<<<<<<<<<<<<<<<<<<<<<<<<<<




USA.gov is the U.S. government's official web portal to all federal, state and local government web resources and services.